Location: Naloco
(16.5478°S, 37.1017°E)
Time: 02:18:21
(UTC+00:00)

Okean-O - Pass Details

Date: 13 August 2020
Orbit: 639 x 640 km, 98.2° (Epoch: 23 September)

Event Time Altitude Azimuth Distance (km) Brightness Sun altitude
Rises 16:38:32 0° 172° (S) 2,959 5.9 -18.6°
Reaches altitude 10° 16:40:45 10° 174° (S) 2,044 5.0 -19.2°
Maximum altitude 16:45:12 72° 257° (WSW) 678 2.8 -20.2°
Drops below altitude 10° 16:49:35 10° 341° (NNW) 2,024 5.5 -21.2°
Sets 16:51:47 0° 343° (NNW) 2,926 6.4 -21.8°
